Regional Weather Roundup
Issued by NWS Goodland, KS

Home | Current Version | Previous Version | Graphics & Text | Print | Product List | Glossary On
Versions: 1 2 3 4 5 6 7 8 9 10 11 12 13 14 15 16 17 18 19 20 21 22 23 24 25 26 27 28 29 30 31 32 33 34 35 36 37 38 39 40 41 42 43 44 45 46 47 48 49 50
000
ASUS43 KGLD 300459
RWRGLD

GOODLAND FORECAST AREA HOURLY WEATHER ROUNDUP
NATIONAL WEATHER SERVICE GOODLAND KS
1100 PM MDT MON MAY 29 2017

...OFFICIAL OBSERVATIONS...

CITY           SKY/WX    TMP DP  RH WIND       PRES   REMARKS
GOODLAND KS    CLOUDY    52  47  83 SW8       30.17R
HILL CITY KS   PTCLDY    55  51  86 SW3       30.11R
IMPERIAL NEB   MOCLDY    56  41  57 SW10      30.15R
MCCOOK NEB     PTCLDY    56  42  59 CALM      30.12R
AKRON CO       CLEAR     51  46  83 S9        30.22S
BURLINGTON CO  CLEAR     50  47  89 W7        30.21R
LIMON CO       CLOUDY    42  42 100 CALM      30.27R
$$

...UNOFFICIAL OBSERVATIONS...

CITY           SKY/WX    TMP DP  RH WIND       PRES   REMARKS
LENORA KS        N/A     58  32  37 MISG        N/A
NORTON KS      CLEAR     54  43  66 CALM      30.10S
SHARON SPRINGS   N/A     56  51  85 SW14        N/A
TRENTON NEB      N/A     58  32  37 CALM        N/A
KIT CARSON CO    N/A     48  45  89 CALM        N/A
YUMA CO        FAIR      50  41  71 SW8       30.20S
$$




USA.gov is the U.S. government's official web portal to all federal, state and local government web resources and services.